TimeEST,TemperatureF,Dew PointF,Humidity,Sea Level PressureIn,VisibilityMPH,Wind Direction,Wind SpeedMPH,Gust SpeedMPH,PrecipitationIn,Events,Conditions,WindDirDegrees,DateUTC
12:15 AM,53.6,44.6,72,30.12,10.0,North,8.1,-,0.00,,Overcast,10,2012-12-07 05:15:00
12:55 AM,53.6,46.4,77,30.11,10.0,NNE,10.4,-,0.00,,Overcast,20,2012-12-07 05:55:00
1:15 AM,53.6,46.4,77,30.10,10.0,NNE,9.2,-,0.00,,Overcast,20,2012-12-07 06:15:00
1:35 AM,53.6,46.4,77,30.10,10.0,NNE,8.1,-,0.00,,Overcast,30,2012-12-07 06:35:00
1:55 AM,53.6,46.4,77,30.09,10.0,NNE,8.1,-,0.00,,Overcast,20,2012-12-07 06:55:00
2:15 AM,53.6,48.2,82,30.08,10.0,NE,10.4,-,0.00,,Overcast,40,2012-12-07 07:15:00
2:35 AM,53.6,48.2,82,30.08,10.0,NNE,9.2,-,0.00,,Overcast,30,2012-12-07 07:35:00
2:55 AM,53.6,48.2,82,30.07,10.0,North,10.4,-,0.00,,Overcast,10,2012-12-07 07:55:00
3:15 AM,53.6,48.2,82,30.07,10.0,North,10.4,-,0.00,,Overcast,360,2012-12-07 08:15:00
3:35 AM,53.6,48.2,82,30.07,10.0,North,9.2,-,0.00,,Overcast,360,2012-12-07 08:35:00
3:55 AM,53.6,48.2,82,30.06,10.0,NNE,10.4,16.1,0.00,,Overcast,20,2012-12-07 08:55:00
4:15 AM,53.6,48.2,82,30.06,10.0,NNE,8.1,-,0.00,,Overcast,20,2012-12-07 09:15:00
4:35 AM,53.6,48.2,82,30.06,10.0,North,9.2,-,0.00,,Overcast,360,2012-12-07 09:35:00
4:55 AM,53.6,50.0,88,30.06,10.0,North,9.2,16.1,0.00,,Overcast,360,2012-12-07 09:55:00
5:15 AM,53.6,48.2,82,30.06,10.0,North,9.2,-,0.00,,Overcast,360,2012-12-07 10:15:00
5:35 AM,53.6,48.2,82,30.06,10.0,North,11.5,17.3,0.00,,Overcast,360,2012-12-07 10:35:00
5:55 AM,53.6,48.2,82,30.06,10.0,North,11.5,-,0.00,,Overcast,10,2012-12-07 10:55:00
6:15 AM,53.6,48.2,82,30.06,10.0,North,10.4,-,0.00,,Overcast,10,2012-12-07 11:15:00
6:35 AM,53.6,48.2,82,30.06,10.0,North,8.1,-,0.00,,Overcast,360,2012-12-07 11:35:00
6:55 AM,53.6,48.2,82,30.05,10.0,North,6.9,-,0.00,,Overcast,350,2012-12-07 11:55:00
7:15 AM,53.6,48.2,82,30.05,10.0,North,8.1,-,0.00,,Overcast,360,2012-12-07 12:15:00
7:35 AM,53.6,48.2,82,30.06,8.0,North,10.4,-,0.00,,Overcast,360,2012-12-07 12:35:00
7:55 AM,53.6,48.2,82,30.07,7.0,North,12.7,-,0.00,,Overcast,360,2012-12-07 12:55:00
8:15 AM,53.6,48.2,82,30.07,6.0,North,9.2,-,0.00,,Overcast,360,2012-12-07 13:15:00
8:35 AM,53.6,48.2,82,30.07,5.0,North,11.5,-,0.00,,Overcast,360,2012-12-07 13:35:00
8:55 AM,53.6,50.0,88,30.08,5.0,North,6.9,-,0.00,,Overcast,10,2012-12-07 13:55:00
9:15 AM,53.6,50.0,88,30.08,5.0,North,10.4,-,0.00,,Overcast,360,2012-12-07 14:15:00
9:35 AM,53.6,50.0,88,30.09,5.0,North,9.2,-,0.00,,Overcast,10,2012-12-07 14:35:00
9:55 AM,55.4,50.0,82,30.09,4.0,North,9.2,-,0.00,,Haze,360,2012-12-07 14:55:00
10:15 AM,55.4,50.0,82,30.09,3.0,NNW,8.1,-,0.00,,Haze,340,2012-12-07 15:15:00
10:35 AM,55.4,51.8,88,30.08,3.0,NNW,9.2,-,0.00,,Haze,340,2012-12-07 15:35:00
10:55 AM,55.4,51.8,88,30.07,4.0,North,6.9,17.3,0.00,,Haze,350,2012-12-07 15:55:00
11:15 AM,55.4,51.8,88,30.08,5.0,NNW,9.2,-,0.00,,Overcast,340,2012-12-07 16:15:00
11:35 AM,55.4,51.8,88,30.07,5.0,North,8.1,-,0.00,,Haze,350,2012-12-07 16:35:00
11:55 AM,57.2,51.8,82,30.06,4.0,NNW,6.9,-,0.00,,Haze,340,2012-12-07 16:55:00
12:15 PM,59.0,51.8,77,30.04,7.0,North,8.1,-,0.00,,Overcast,350,2012-12-07 17:15:00
12:35 PM,60.8,51.8,72,30.03,7.0,NNW,8.1,-,0.00,,Overcast,340,2012-12-07 17:35:00
12:55 PM,60.8,53.6,77,30.02,7.0,North,5.8,-,0.00,,Unknown,10,2012-12-07 17:55:00
1:15 PM,62.6,53.6,72,30.01,7.0,NNW,6.9,-,0.00,,Overcast,340,2012-12-07 18:15:00
1:35 PM,62.6,53.6,72,30.00,8.0,North,8.1,-,0.00,,Overcast,350,2012-12-07 18:35:00
1:55 PM,62.6,53.6,72,30.00,9.0,NNW,6.9,-,0.00,,Overcast,340,2012-12-07 18:55:00
2:15 PM,62.6,53.6,72,30.00,8.0,North,6.9,-,0.00,,Overcast,10,2012-12-07 19:15:00
2:35 PM,62.6,53.6,72,30.00,9.0,North,6.9,-,0.00,,Overcast,360,2012-12-07 19:35:00
2:55 PM,62.6,53.6,72,30.00,10.0,NNW,5.8,-,0.00,,Overcast,340,2012-12-07 19:55:00
3:15 PM,64.4,55.4,73,29.99,10.0,North,6.9,-,0.00,,Overcast,350,2012-12-07 20:15:00
3:35 PM,64.4,53.6,68,29.99,10.0,NNW,6.9,-,0.00,,Overcast,340,2012-12-07 20:35:00
3:55 PM,62.6,55.4,77,29.99,9.0,North,6.9,-,0.00,,Overcast,360,2012-12-07 20:55:00
4:15 PM,62.6,55.4,77,29.99,9.0,North,8.1,-,0.00,,Scattered Clouds,350,2012-12-07 21:15:00
4:35 PM,62.6,55.4,77,29.99,9.0,North,3.5,-,0.00,,Mostly Cloudy,350,2012-12-07 21:35:00
4:55 PM,62.6,55.4,77,29.99,9.0,NNW,4.6,-,0.00,,Mostly Cloudy,340,2012-12-07 21:55:00
5:15 PM,60.8,55.4,82,29.99,10.0,North,5.8,-,0.00,,Scattered Clouds,350,2012-12-07 22:15:00
5:35 PM,60.8,53.6,77,30.00,10.0,Calm,Calm,-,0.00,,Partly Cloudy,0,2012-12-07 22:35:00
5:55 PM,59.0,53.6,82,30.00,7.0,North,4.6,-,0.00,,Mostly Cloudy,10,2012-12-07 22:55:00
6:15 PM,59.0,53.6,82,30.01,8.0,North,5.8,-,0.00,,Mostly Cloudy,360,2012-12-07 23:15:00
6:35 PM,57.2,53.6,88,30.01,7.0,NNW,6.9,-,0.00,,Mostly Cloudy,340,2012-12-07 23:35:00
6:55 PM,57.2,53.6,88,30.01,8.0,NNW,4.6,-,0.00,,Mostly Cloudy,340,2012-12-07 23:55:00
7:15 PM,57.2,53.6,88,30.02,8.0,NNW,4.6,-,0.00,,Scattered Clouds,340,2012-12-08 00:15:00
7:35 PM,57.2,53.6,88,30.02,8.0,Calm,Calm,-,0.00,,Mostly Cloudy,0,2012-12-08 00:35:00
7:55 PM,57.2,53.6,88,30.02,9.0,NNW,3.5,-,0.00,,Overcast,330,2012-12-08 00:55:00
8:15 PM,57.2,53.6,88,30.02,8.0,Calm,Calm,-,0.00,,Mostly Cloudy,0,2012-12-08 01:15:00
8:35 PM,57.2,53.6,88,30.03,7.0,Calm,Calm,-,0.00,,Mostly Cloudy,0,2012-12-08 01:35:00
8:55 PM,57.2,53.6,88,30.04,6.0,Calm,Calm,-,0.00,,Overcast,0,2012-12-08 01:55:00
9:15 PM,57.2,53.6,88,30.03,6.0,Calm,Calm,-,0.00,,Mostly Cloudy,0,2012-12-08 02:15:00
9:35 PM,55.4,53.6,94,30.03,7.0,Calm,Calm,-,0.00,,Partly Cloudy,0,2012-12-08 02:35:00
10:15 PM,55.4,53.6,94,30.04,5.0,Calm,Calm,-,0.00,,Mostly Cloudy,0,2012-12-08 03:15:00
10:35 PM,55.4,53.6,94,30.04,5.0,Calm,Calm,-,0.00,,Overcast,0,2012-12-08 03:35:00
10:55 PM,55.4,53.6,94,30.04,5.0,NW,3.5,-,0.00,,Overcast,310,2012-12-08 03:55:00
11:15 PM,55.4,53.6,94,30.04,3.0,NW,4.6,-,0.00,,Overcast,310,2012-12-08 04:15:00
11:35 PM,55.4,53.6,94,30.03,1.5,NNW,3.5,-,0.00,,Overcast,330,2012-12-08 04:35:00
11:55 PM,55.4,53.6,94,30.03,2.5,NNW,4.6,-,0.00,,Overcast,330,2012-12-08 04:55:00